Location: Martley
(52.2333°N, 2.3667°W)
Time: 09:37:53
(UTC+00:00)

Okean 1-7 - Pass Details

Date: 11 December 2019
Orbit: 591 x 619 km, 82.5° (Epoch: 17 January)

Event Time Altitude Azimuth Distance (km) Brightness Sun altitude
Exits shadow 05:24:49 50° 197° (SSW) 791 3.4 -23.6°
Drops below altitude 10° 05:28:09 10° 179° (S) 1,977 5.7 -23.1°
Sets 05:30:21 0° 177° (S) 2,875 6.6 -22.8°
